sat.trackr.live / text

‹ back to catalog

STARLINK-30331

NORAD 57740 · 2023-131J

PAYLOAD ACTIVE UNKNOWN

§ Identity

Operator
Country
US
Launch date
2023-09-01
Launch site
AFETR
Launch vehicle
Mass (kg)
RCS (m²)

Purposes: comms

External: N2YO · Heavens-Above · Gunter

§ Orbital elements

Epoch: 2026-05-25T01:18:15.135840Z

Period
94.27 min
Inclination
43.0029°
Eccentricity
0.0001099
Mean motion
15.27580762 rev/d
Perigee alt
482.3 km
Apogee alt
483.8 km
Semi-major
6,861.2 km
B*
6.8626e-6
RAAN
28.1322°
Arg perigee
245.6563°
Mean anomaly
114.4174°
Rev number
15,245

§ Raw data

STARLINK-303311 57740U 23131J   26145.05434185 -.00000073  00000+0  68626-5 0  99942 57740  43.0029  28.1322 0001099 245.6563 114.4174 15.27580762152453

JSON: /api/v1/satellites/57740 · /tle

For live sub-satellite position, see the globe view (requires WebGL).

§ Visibility from observer

Set your observer location to see the next 7 days of passes ≥ 10°. The values pass through the URL so the page stays shareable.

No JS? Fill the form by hand. The geolocation button needs JavaScript.